Showing default

FLOCK 4G 2, 62661

Orbit data source: Space-Track

FLOCK 4G 2, 62661 is a payload satellite owned by Planet (US) in SSO that was launched on Tue, 14 Jan 2025 UTC via an FALCON 9 launch vehicle from the Air Force Western Test Range (AFWTR). Payload-class satellites include a variety of spacecraft equipped with specific instruments for various scientific and technological missions. These include communications satellites like Starlink; space stations such as the ISS; scientific satellites like the Hubble; Earth observation satellites from companies like Planet Labs, Umbra, and HawkEye 360; GPS; miniature CubeSats for education and research; and military/defense satellites.

Loading next visibility...
Identifier
62661, 2025-009BE
Orbit
SSO
Country
Flag of USUS
Related business
Manufacturer
Planet
Mission
Operational Commercial Imaging
Bus & Motor
CUBESAT 3U, Unknown motor
Mass
5.7 kg wet, 5.7 kg dry
Launch date (UTC)
2025-01-14 (1 year ago)
Launch vehicle
FALCON 9
Launch site
Air Force Western Test Range (AFWTR)
Object type
Payload
Rocket body
Debris
Shape & HBR
Box + 2 Pan, 1.0 m
Radar Cross Section
0.072 m², Medium (>0.1 m² and < 1m²)

Expand to show TLE details & history
Last TLE update: 9 hours ago

TLE from 9 hours ago
0 FLOCK 4G 2
1 62661U 25009BE  26126.14443156  .00009710  00000-0  34664-3 0  9995
2 62661  97.4006 208.3612 0005667 112.0759 248.1083 15.29052393130100
Epoch: 2026-05-06T03:27Z
TLE epoch observation values (Epoch: 2026-05-06T03:27:58.886Z)
Latitude
-0.00007°
Longitude
-67.64329°
Altitude
483.198 km
Speed
7.623 km/s
True Right ascension
13h 53m 26s
True Declination
0° 00' 00"
Sunlit
Object was in full shadow at epoch
Visualization orbit readout
Latitude
Unknown
Longitude
Unknown
Altitude
Unknown
Speed
Unknown
Apparent Right ascension
Unknown
Apparent Declination
Unknown
Sunlit
N/A
Visualization observer readout
Local Sidereal Time
20:30:05
Azimuth
Unknown
Elevation
Unknown
Doppler factor
Unknown
Orbital elements
Apogee altitude
479.481 km
Perigee altitude
471.713 km
Semi-major axis
6,853.734 km
Eccentricity
0.00057
Inclination
97.4006°
RAAN
208.3612°
Arg. of periapsis
112.0759°
True anomaly
248.04806°
Mean anomaly
248.1083°
Eccentric anomaly
248.07818°
Mean motion
3.82518 °/min
Orbital period
94.11 mins
BSTAR
0.00034664
Loading maneuver chart data...
Computing Atmospheric mass density...
Loading historical data...
Loading historical data...
Loading historical data...
Loading historical data...
Loading historical data...
Loading historical data...
Loading historical data...

Documentation

Showing up to 5 results
|